Regional Weather Roundup
Issued by NWS

Home | Current Version | Previous Version | Graphics & Text | Print | Product List | Glossary On
Versions: 1 2 3 4 5 6 7 8 9 10 11 12 13 14 15 16 17 18 19 20 21 22 23 24 25 26 27 28 29 30 31 32 33 34 35 36 37 38 39 40 41 42 43 44 45 46 47 48 49 50
000
ASUS45 KCYS 020510
RWRWY

WYOMING REGIONAL WEATHER ROUNDUP
NATIONAL WEATHER SERVICE CHEYENNE WY
1100 PM MDT WED JUL 01 2015

NOTE:  "FAIR" INDICATES FEW OR NO CLOUDS BELOW 12,000 FEET
WITH NO SIGNIFICANT WEATHER AND/OR OBSTRUCTIONS TO VISIBILITY.

WYZ001-020600-
YELLOWSTONE NATIONAL PARK

CITY           SKY/WX    TMP DP  RH WIND       PRES   REMARKS
LK YELLOWSTONE   N/A     57  42  57 NW5       30.35R
W YELLOWSTONE  NOT AVBL

$$
WYZ002>013-054>058-071-098>099-020600-
NORTHERN WYOMING

CITY           SKY/WX    TMP DP  RH WIND       PRES   REMARKS
JACKSON        FAIR      57  46  67 N5        30.21R
CODY           FAIR      70  48  46 N8        30.19R
GREYBULL       FAIR      77  53  43 NW14      30.02R
WORLAND        MOCLDY    71  58  63 E5        30.03R
SHERIDAN       CLOUDY    67  57  70 W6        30.16R
BUFFALO        CLOUDY    65  56  72 NW9       30.22R
GILLETTE       FAIR      60  56  86 NW6       30.15R
NEWCASTLE      NOT AVBL

$$
WYZ014>020-022>026-101>103-020600-
CENTRAL WYOMING

CITY           SKY/WX    TMP DP  RH WIND       PRES   REMARKS
BIG PINEY      FAIR      62  36  37 NW10      30.25R
PINEDALE       FAIR      59  43  55 NW7       30.26R
DUBOIS         NOT AVBL
LANDER         FAIR      74  49  41 NW8       30.16R
RIVERTON       MOCLDY    72  51  47 NE6       30.12R
CASPER         CLOUDY    67  57  70 NE8       30.11R
DOUGLAS        FAIR      65  61  87 CALM      30.06F

$$
WYZ021-027>030-104>119-020600-
SOUTHERN WYOMING

CITY           SKY/WX    TMP DP  RH WIND       PRES   REMARKS
EVANSTON       FAIR      72  40  31 N6        30.28R
FORT BRIDGER   CLEAR     70  41  35 W6        30.29R
ROCK SPRINGS   FAIR      71  41  33 N6        30.20R
RAWLINS        FAIR      59  55  87 NE7       30.20S
LARAMIE        FAIR      56  52  86 S10       30.25F
CHEYENNE       FAIR      60  54  80 W10       30.17F
TORRINGTON     FAIR      65  59  81 E9        30.04S

$$


USA.gov is the U.S. government's official web portal to all federal, state and local government web resources and services.